Weather in Nikolskoye

Russia / Yaroslavl Oblast     57°31′06″N   40°21′55″E
temp.,
°C
wind,
m/s
gust,
m/s
humid.,
%
clouds,
%
prec.,
mm/h
press.,
hPa
HPBL,
m
18 january, mon
mon1800:00−23w22971 0.0 101920
03:00−23wsw229615 0.0 101920
06:00−22sw229416 0.0 101920
09:00−22sw349630 0.0 101942
12:00−18wsw239492 0.0 1020108
15:00−17sw229547 0.0 101920
18:00−20wsw229833 0.0 101920
21:00−20wsw229939 0.0 101920
19 january, tue
tue1900:00−19sw239894 0.1 101947
03:00−20w229897 0.1 101920
06:00−19sw1198100 0.0 101820
09:00−18sw2297100 0.2 101836
12:00−16wnw129495 0.0 1017136
15:00−15wnw119491 0.1 1016146
18:00−18wnw119878 0.1 101620
21:00−17wnw229783 0.1 101621
20 january, wed
wed2000:00−18wnw229886 0.0 101620
03:00−17w239792 0.1 101629
06:00−17w239787 0.1 101640
09:00−17w339786 0.1 101747
12:00−13w359586 0.1 1017210
15:00−13w369689 0.1 1017163
18:00−16w349768 0.0 101851
21:00−17wsw349743 0.0 101963
21 january, thu
thu2100:00−18wsw349717 0.0 101947
03:00−18sw349714 0.0 101949
06:00−18ssw469597 0.0 101794
09:00−16s5108699 0.0 1014237
12:00−12s71487100 0.0 1010375
15:00−10ssw71394100 2.3 1005721
18:00−8sw61395100 2.9 1003695
21:00−5sw51196100 5.6 1000530
22 january, fri
fri2200:00+1w512100100 2.2 999405
03:00−5nne4796100 3.9 1001254
06:00−9nne4695100 0.8 1004250
09:00−11ne4695100 1.1 1007242
12:00−11ne4594100 0.5 1009252
15:00−12ne3694100 0.5 1011238
18:00−16ene369697 0.0 1013106
21:00−16e489498 0.0 1014232